Showing default

SKY MEXICO-1, 40664

Orbit data source: Space-Track

SKY MEXICO-1, 40664 is a Mexican payload satellite in GEO that was launched on Wed, 27 May 2015 UTC via an ARIANE 5ECA launch vehicle from the French Guiana (FRGUI). Payload-class satellites include a variety of spacecraft equipped with specific instruments for various scientific and technological missions. These include communications satellites like Starlink; space stations such as the ISS; scientific satellites like the Hubble; Earth observation satellites from companies like Planet Labs, Umbra, and HawkEye 360; GPS; miniature CubeSats for education and research; and military/defense satellites.

Loading next visibility...
Identifier
40664, 2015-026B
Orbit
GEO
Country
Flag of MXMX / MEX
Related business
Manufacturer
OATK SSG
Mission
Operational Commercial Communications
Bus & Motor
GEOSTAR-2, IHI BT-4
Mass
3,182 kg wet, 1,260 kg dry
Launch date (UTC)
2015-05-27 (10 years ago)
Launch vehicle
ARIANE 5ECA
Launch site
French Guiana (FRGUI)
Object type
Payload
Rocket body
Debris
Shape & HBR
Box + 2 Pan, 11.2 m
Radar Cross Section
28.221 m², Large (>1 m²)

Expand to show TLE details & history
Last TLE update: 22 hours ago

TLE from 22 hours ago
0 SKY MEXICO-1
1 40664U 15026B   25260.99544653 -.00000255  00000-0  00000-0 0  9997
2 40664   0.0198 101.0324 0002171  91.9916  83.7398  1.00270885 37725
Epoch: 2025-09-17T23:53Z
TLE epoch observation values (Epoch: 2025-09-17T23:53:26.58Z)
Latitude
0.01534°
Longitude
-78.73368°
Altitude
35,785.37 km
Speed
3.075 km/s
True Right ascension
18h 27m 09s
True Declination
0° 00' 55"
Sunlit
Object was in daylight at epoch
Visualization orbit readout
Latitude
Unknown
Longitude
Unknown
Altitude
Unknown
Speed
Unknown
Apparent Right ascension
Unknown
Apparent Declination
Unknown
Sunlit
N/A
Visualization observer readout
Local Sidereal Time
14:27:25
Azimuth
Unknown
Elevation
Unknown
Doppler factor
Unknown
Orbital elements
Apogee altitude
35,797.072 km
Perigee altitude
35,778.763 km
Semi-major axis
42,166.055 km
Eccentricity
0.00022
Inclination
0.0198°
RAAN
101.0324°
Arg. of periapsis
91.9916°
True anomaly
83.76453°
Mean anomaly
83.7398°
Eccentric anomaly
83.75217°
Mean motion
0.25067 °/min
Orbital period
1,436.16 mins
BSTAR
0
Loading maneuver chart data...
Computing Atmospheric mass density...
Loading historical data...
Loading historical data...
Loading historical data...
Loading historical data...
Loading historical data...
Loading historical data...
Loading historical data...
Other satellites on launch #26 in the year 2015 (2015-05-27 UTC)

Documentation

Showing up to 5 results
|